This demonstration page uses our WeatherBlox Daily Observations layout. Learn more.

Left ArrowRight Arrow

Hourly Observations for December 22, 2015

Temp ( °F °C ) Dew Point ( °F °C ) Humidity (%) Winds ( mph kmh ) Pressure ( in mb ) Visibility ( mi km ) Precip ( " mm )
12:51 am 00:51 Clear 36 2.2 28 -2.2 73 73 NNW 5 7 29.91 1013 10 16 N/A
1:51 am 01:51 Clear 37 2.8 28 -2.2 70 70 ESE 5 7 29.89 1012 10 16 N/A
2:51 am 02:51 Clear 37 2.8 28 -2.2 70 70 ENE 7 11 29.87 1012 10 16 N/A
3:51 am 03:51 Clear 36 2.2 27 -2.8 70 70 E 7 11 29.83 1010 10 16 N/A
4:51 am 04:51 Clear 36 2.2 27 -2.8 70 70 N N/A 29.83 1010 10 16 N/A
5:51 am 05:51 Clear 34 1.1 27 -2.8 76 76 SE 3 6 29.84 1010 10 16 N/A
6:51 am 06:51 Clear 33 0.6 27 -2.8 78 78 N N/A 29.85 1011 10 16 N/A
7:51 am 07:51 Mostly Sunny 34 1.1 27 -2.8 76 76 N N/A 29.88 1012 10 16 N/A
8:51 am 08:51 Sunny 39 3.9 29 -1.7 67 67 N N/A 29.86 1011 10 16 N/A
9:51 am 09:51 Sunny 42 5.6 29 -1.7 60 60 SE 5 7 29.85 1011 10 16 N/A
10:51 am 10:51 Partly Cloudy 49 9.4 30 -1.1 48 48 N N/A 29.83 1010 10 16 N/A
11:51 am 11:51 Mostly Cloudy 52 11.1 31 -0.6 45 45 W 7 11 29.79 1009 10 16 N/A
12:51 pm 12:51 Cloudy 53 11.7 31 -0.6 43 43 WSW 9 15 29.75 1007 10 16 N/A
1:51 pm 13:51 Cloudy 53 11.7 32 undefined 45 45 W 9 15 29.73 1007 10 16 N/A
2:51 pm 14:51 Cloudy 53 11.7 37 2.8 55 55 NW 21 33 29.71 1006 10 16 N/A
3:51 pm 15:51 Cloudy 51 10.6 37 2.8 59 59 NNW 17 28 29.69 1005 10 16 N/A
4:51 pm 16:51 Cloudy with Light Rain 50 10 41 5 71 71 W 8 13 29.73 1007 9 14 N/A
5:51 pm 17:51 Cloudy with Light Rain 48 8.9 42 5.6 80 80 WSW 8 13 29.72 1007 10 16 N/A
6:26 pm 18:26 Cloudy with Light Rain 47 8.3 43 6.1 86 86 SW 8 13 29.77 1008 10 16 N/A
6:51 pm 18:51 Cloudy with Light Rain 46 7.8 43 6.1 89 89 SW 8 13 29.73 1007 10 16 N/A
6:58 pm 18:58 Cloudy 46 7.8 43 6.1 89 89 SW 6 9 29.74 1007 10 16 N/A
7:51 pm 19:51 Partly Cloudy 44 6.7 42 5.6 93 93 WSW 6 9 29.73 1007 10 16 N/A
8:51 pm 20:51 Mostly Cloudy 43 6.1 41 5 93 93 WSW 3 6 29.73 1007 10 16 N/A
9:51 pm 21:51 Cloudy 42 5.6 41 5 96 96 E 7 11 29.74 1007 10 16 N/A
10:17 pm 22:17 Mostly Cloudy 43 6.1 41 5 93 93 E 6 9 29.77 1008 10 16 N/A
10:51 pm 22:51 Cloudy 44 6.7 42 5.6 93 93 SE 9 15 29.71 1006 10 16 N/A
11:51 pm 23:51 Cloudy 45 7.2 42 5.6 90 90 SE 3 6 29.70 1006 10 16 N/A

Powered by AerisWeather